Theta_e
318 317 317 317 318 318 317 317 318 321 322 321 322 322 323 324 324 325 325 326 324 322 321 321 321 320 319 319 317 316 313 311 311 312 310 312 313 314 315 316 317 317 315
314 313 313 313 313 313 313 313 315 315 318 320 321 320 321 321 320 321 320 319 320 322 322 321 321 325 319 319 319 316 315 314 313 314 312 310 311 313 314 314 317 317 314
310 309 310 309 310 310 311 312 312 313 313 313 315 315 317 315 313 313 313 315 314 314 316 316 317 317 317 318 318 318 319 319 314 314 315 312 312 313 313 312 312 311 316
308 307 307 306 306 306 308 309 310 312 310 310 310 311 312 312 312 313 312 308 307 309 310 310 310 309 309 310 311 313 315 315 315 314 315 315 312 312 311 312 311 309 311
307 305 304 306 305 305 305 305 306 306 307 308 308 308 308 308 310 305 305 303 302 304 305 307 308 310 314 312 310 307 307 307 308 310 311 310 310 308 308 312 308 309 308
305 304 305 304 303 301 301 301 302 302 302 303 303 304 303 308 301 302 302 299 299 300 300 302 304 308 308 309 309 310 308 305 306 307 305 306 308 308 308 308 308 304 303
303 304 304 302 301 300 300 300 298 297 297 297 298 299 299 299 300 298 300 296 296 297 298 299 300 303 304 304 305 306 306 306 307 305 302 303 304 307 309 309 305 304 303
301 301 301 300 299 298 297 295 295 293 293 293 293 294 294 296 298 297 298 295 295 295 296 296 296 297 299 301 301 301 302 303 303 305 305 305 307 309 311 310 309 307 306
298 298 298 297 295 294 292 290 291 290 290 291 292 292 291 292 295 294 295 294 295 296 296 296 297 296 297 296 298 298 299 300 302 302 301 300 299 299 304 308 307 308 307
295 295 295 293 291 290 288 288 288 289 290 292 292 292 294 293 294 295 295 296 294 294 295 296 298 297 295 295 296 297 297 298 299 300 302 303 302 303 301 303 306 305 308
293 292 291 289 288 288 288 289 290 290 291 291 291 292 293 294 295 295 295 295 295 294 295 296 297 296 294 294 294 297 296 298 299 299 300 302 306 309 308 309 308 310 309
289 288 288 288 289 290 289 289 289 289 289 289 289 291 293 295 295 295 294 294 295 294 295 297 297 295 294 294 294 294 294 295 297 297 298 299 300 302 304 308 310 311 313
286 287 288 288 289 289 288 287 288 289 288 288 289 289 291 294 295 295 294 293 294 295 297 296 295 293 293 294 294 294 294 295 295 295 296 297 299 301 302 303 307 310 312
286 287 288 287 288 287 289 289 288 288 288 288 289 289 291 292 293 295 295 295 295 295 295 294 294 293 293 294 294 295 295 294 294 296 296 298 299 298 299 300 301 308 309
287 287 287 287 287 288 289 289 289 291 290 289 290 290 290 291 293 293 293 293 294 293 293 292 291 291 291 293 294 296 298 299 299 299 299 300 299 298 299 300 301 302 304
285 286 287 287 288 288 288 289 292 291 291 291 291 291 293 293 292 292 291 291 290 290 291 290 290 291 291 293 295 296 299 301 303 304 303 302 301 300 299 301 302 302 302
286 287 288 288 288 288 289 289 289 293 294 293 293 292 292 292 292 292 291 290 289 289 290 291 291 292 293 295 297 298 299 303 307 307 306 304 303 303 301 303 305 306 304
287 288 287 288 288 289 290 291 293 294 294 295 296 295 294 293 292 292 291 290 293 292 292 293 294 296 298 300 302 305 308 309 310 310 309 307 305 304 304 304 303 304 308
286 287 288 288 289 290 292 294 294 294 293 294 297 296 293 292 293 295 290 293 294 295 296 298 300 302 305 307 310 311 310 310 310 309 308 308 306 306 305 305 302 296 302
287 288 288 288 289 289 290 290 292 290 290 292 293 294 292 293 295 297 299 300 300 300 301 303 304 306 308 310 311 311 311 310 312 307 307 308 308 307 306 303 303 304 307
287 287 286 287 287 285 286 289 290 288 288 290 291 292 287 290 292 293 294 296 297 298 300 304 307 308 311 312 312 311 311 310 311 311 310 308 306 305 307 308 308 309 311
286 286 286 286 286 286 286 287 287 287 287 288 288 289 287 290 290 291 292 294 295 299 303 306 309 310 310 304 305 304 305 312 311 310 311 312 309 310 311 311 312 312 311
285 285 285 285 285 285 285 286 286 285 286 286 287 287 287 288 289 290 291 293 296 303 310 308 302 301 301 300 299 299 297 299 307 315 315 313 312 311 311 313 313 312 309
285 285 284 284 284 284 284 284 285 285 285 285 286 286 286 287 287 288 289 292 294 303 302 299 298 296 296 296 295 295 294 293 303 311 314 313 313 309 315 314 314 311 306
286 285 285 285 284 283 283 284 284 284 285 285 285 285 286 286 286 287 288 290 292 295 296 296 297 294 293 291 289 290 288 287 294 292 310 310 312 313 312 312 309 305 304
286 285 285 285 284 284 283 283 283 284 284 284 284 285 285 285 285 286 287 288 290 291 292 293 293 293 291 289 288 286 286 286 289 289 305 307 306 308 310 308 306 303 301
Wind_Speed
10 8 9 6 6 6 7 6 6 6 7 7 7 6 5 5 6 5 5 6 6 6 5 6 7 6 5 5 4 5 5 5 7 5 5 5 4 6 6 5 6 6 5
8 9 8 8 7 7 7 5 5 6 5 6 7 6 5 6 5 6 4 5 5 6 6 6 8 6 6 7 7 7 7 6 7 13 7 6 7 7 6 6 6 5 5
8 7 7 8 8 8 8 7 7 5 3 3 3 4 5 6 6 5 4 4 5 5 4 4 5 5 5 6 7 8 7 7 5 8 8 4 6 4 5 4 5 5 5
8 8 8 8 7 8 7 8 8 7 7 6 5 5 5 5 5 6 4 4 4 4 5 5 5 5 6 5 4 5 5 5 5 5 7 6 5 6 4 6 6 4 5
7 7 5 4 5 6 7 7 7 7 7 7 8 8 7 6 5 5 4 4 4 4 3 4 5 7 10 9 5 6 5 3 3 4 5 4 3 3 5 5 5 4 4
7 5 5 6 5 6 7 7 7 7 8 7 8 7 7 6 5 6 5 5 5 5 6 5 5 9 9 12 10 8 6 4 5 4 5 7 8 4 4 4 5 3 4
6 5 7 7 8 7 6 6 6 6 5 6 7 7 6 6 8 2 6 4 5 5 6 7 9 9 9 9 13 15 14 14 15 12 13 12 12 8 5 8 6 6 5
9 10 9 8 7 6 6 6 7 4 5 6 7 6 8 8 9 9 12 11 9 9 9 9 9 11 11 11 12 12 11 10 8 7 10 11 10 8 7 7 6 6 4
10 9 9 9 9 9 9 9 8 9 10 9 9 10 11 11 15 16 12 7 8 9 8 9 10 11 12 13 11 13 14 13 11 14 15 16 17 16 16 10 10 8 9
8 7 6 6 7 8 6 8 7 6 9 9 11 10 13 12 14 13 12 6 8 7 9 9 13 12 13 15 10 10 11 11 9 10 10 11 14 15 17 13 11 11 10
7 7 8 7 8 6 8 8 9 9 10 10 10 10 11 11 11 12 14 7 7 8 7 7 7 13 13 14 12 9 11 10 12 9 9 9 10 7 5 5 8 9 10
7 8 8 7 8 8 9 8 9 9 9 9 10 9 7 9 12 12 14 14 12 8 9 7 8 12 11 12 10 13 16 14 9 9 9 10 8 7 6 6 8 9 9
6 7 9 9 8 7 8 8 8 7 7 8 7 8 8 7 8 10 11 13 12 8 6 9 14 11 12 12 16 18 16 10 9 9 11 11 10 9 7 5 8 9 7
8 8 7 8 9 8 6 6 6 7 7 7 8 8 8 9 9 8 6 6 9 8 10 9 12 16 19 18 16 13 9 9 10 12 11 11 7 5 6 5 6 3 3
7 7 7 6 7 8 7 6 7 9 8 8 9 8 9 10 11 12 10 8 7 8 9 7 8 8 9 9 9 11 10 10 11 12 11 10 8 7 7 5 5 4 6
7 6 6 7 7 7 7 9 10 15 21 19 19 15 10 14 22 20 18 15 13 12 5 7 9 8 9 11 11 11 11 13 12 12 11 10 9 8 8 5 4 5 5
7 7 6 7 6 7 7 7 9 13 15 14 13 14 12 15 19 15 13 9 9 6 5 8 9 9 11 12 11 13 13 12 13 11 11 11 10 9 8 7 6 6 5
7 11 6 6 6 7 6 7 7 7 9 10 12 12 16 19 20 16 8 5 5 4 5 8 10 10 11 11 11 9 9 7 8 4 5 10 11 10 8 7 5 4 5
6 5 6 6 6 8 6 6 7 8 8 9 9 9 17 23 16 14 3 3 5 7 7 8 9 9 9 9 8 7 7 7 4 4 5 8 10 9 8 7 4 4 5
6 10 8 5 5 6 6 7 6 7 8 8 8 9 12 10 9 10 9 8 7 6 8 9 9 8 8 8 10 7 7 8 7 6 7 8 8 7 6 5 5 5 3
4 5 7 5 5 4 6 6 7 7 8 8 8 8 13 9 9 9 9 9 9 9 10 9 8 9 9 10 8 10 8 5 6 6 6 5 5 6 6 5 5 5 6
4 5 5 5 6 6 6 6 7 7 8 8 9 9 14 8 9 10 10 10 10 10 8 7 7 10 11 11 11 10 9 8 7 5 5 5 4 4 5 4 4 5 5
5 6 6 6 6 7 6 6 6 7 8 8 9 9 10 10 10 10 11 11 12 11 8 10 11 11 11 10 10 10 9 8 6 5 3 5 5 4 4 5 6 6 5
5 6 6 6 6 6 6 7 7 8 8 8 9 10 10 10 11 12 11 11 11 11 10 10 11 14 12 13 12 12 11 11 8 5 6 4 6 4 5 5 5 7 7
6 6 6 6 7 7 7 8 8 8 8 9 10 10 10 11 11 12 12 12 12 12 14 14 12 17 20 21 20 21 18 17 13 10 6 9 8 7 6 6 7 7 8
8 8 8 7 8 7 8 8 9 9 9 9 10 10 10 11 11 11 11 12 11 12 14 11 16 21 22 17 21 22 23 21 17 17 8 8 7 5 5 7 8 5 6
Wind_Direction
60 62 57 51 61 60 49 40 38 20 12 16 13 11 339 331 338 348 317 297 277 262 254 245 252 242 247 249 242 231 215 184 237 243 221 236 234 232 265 256 255 256 257
51 45 40 35 29 34 27 19 29 26 9 354 350 359 6 347 13 312 319 308 297 276 265 266 265 270 252 251 245 233 230 219 230 260 217 224 217 230 232 258 265 244 250
66 52 36 26 10 10 2 354 355 351 347 335 325 311 309 309 320 318 291 292 301 315 329 330 312 320 290 274 259 263 262 257 225 249 264 219 232 224 245 243 244 254 256
52 40 28 15 1 0 348 350 339 338 329 323 309 299 294 295 292 283 321 354 337 322 311 302 296 286 269 269 281 272 267 264 258 251 261 254 214 228 209 241 255 231 250
67 49 23 8 3 6 9 9 6 12 359 356 1 358 359 349 348 3 1 355 335 316 297 288 277 278 278 268 257 260 264 260 259 261 267 256 236 224 210 233 232 243 254
51 36 24 21 26 25 21 21 28 18 12 10 6 1 1 353 21 12 14 351 332 332 316 295 283 287 274 273 274 248 229 255 263 265 272 267 261 231 222 227 243 214 258
44 28 35 36 40 33 24 17 8 1 352 353 350 345 321 316 321 333 348 338 314 283 280 280 284 284 289 282 277 271 259 238 233 253 261 257 263 258 247 244 212 195 213
36 42 40 34 29 13 14 8 355 348 336 314 306 297 301 301 306 286 287 294 280 267 258 264 261 273 271 273 276 278 276 273 259 249 251 251 250 243 235 240 242 238 264
36 31 25 20 8 358 351 341 329 325 320 315 312 309 302 298 296 293 292 290 286 285 291 287 286 287 286 283 282 279 276 275 277 270 261 257 260 253 248 262 261 259 259
20 10 16 11 351 327 316 324 316 317 317 316 310 304 300 298 294 292 294 295 289 287 284 278 272 264 267 270 268 269 273 275 277 279 278 276 261 253 236 227 235 239 240
357 352 351 347 334 333 335 327 323 316 309 304 299 298 293 284 281 277 282 287 281 282 277 279 274 262 253 262 260 264 262 274 280 275 273 274 259 252 254 217 218 232 234
351 344 341 337 336 333 324 318 313 307 305 308 307 301 294 299 289 273 262 261 274 285 288 275 288 292 282 269 270 261 255 261 268 266 262 258 254 252 244 243 249 238 234
339 335 342 335 328 321 316 311 317 309 301 302 298 296 297 294 289 284 279 278 282 291 284 290 293 290 289 280 265 261 263 261 251 247 247 248 241 234 233 237 253 243 233
341 335 330 328 326 319 313 308 305 303 301 290 292 293 297 295 289 284 274 271 273 277 290 292 294 290 276 266 274 272 256 245 236 241 240 243 239 211 216 206 234 226 177
335 329 325 316 321 322 314 303 298 287 268 282 289 288 292 294 288 288 285 286 281 281 298 284 279 276 279 274 268 260 256 249 236 232 231 231 222 214 215 199 212 203 208
327 322 319 327 322 314 311 312 282 262 278 286 275 263 284 269 282 286 285 282 272 271 274 277 281 278 276 275 270 271 259 252 241 233 221 214 211 202 203 192 189 193 196
318 321 325 321 312 306 307 305 310 318 311 299 292 299 295 284 301 297 276 276 259 262 246 267 270 268 266 269 262 256 261 256 252 243 221 199 194 193 183 189 192 195 194
329 321 312 310 304 303 306 306 307 316 324 329 336 331 340 331 323 318 293 305 301 222 256 267 268 269 269 269 272 267 267 268 263 241 232 187 175 175 178 187 184 181 188
323 314 317 309 304 310 303 321 328 334 331 329 335 354 346 335 328 333 360 265 288 288 280 276 279 290 299 303 309 322 327 341 358 20 12 132 146 152 163 178 163 181 168
317 324 334 319 334 344 336 336 341 348 335 336 347 351 341 332 349 344 338 334 319 302 295 298 310 316 313 318 329 347 349 2 27 54 50 86 112 126 132 130 152 168 147
324 337 335 346 357 350 344 341 353 346 341 341 339 336 333 333 337 335 333 330 325 318 311 317 323 329 343 340 343 349 360 4 33 64 75 82 108 137 150 144 145 143 119
347 354 358 2 359 0 354 354 354 349 344 344 335 334 342 349 342 339 332 329 325 313 309 323 347 5 3 350 355 357 4 18 32 35 73 95 106 121 134 131 128 109 111
17 17 15 10 8 0 4 4 1 353 348 345 338 342 348 348 346 341 337 335 337 341 10 35 21 9 1 4 4 3 359 348 334 318 17 83 78 66 80 106 116 113 120
27 28 26 22 20 17 11 8 7 1 355 354 351 349 350 347 346 347 345 347 352 2 20 24 22 16 6 8 4 4 3 347 331 17 39 104 144 148 113 107 119 118 108
34 30 31 31 28 22 16 17 14 10 5 3 357 355 353 352 352 355 354 354 358 4 9 12 13 11 10 5 5 3 356 359 11 345 46 62 68 87 94 102 105 105 117
42 42 40 34 31 23 20 19 18 14 12 7 2 359 360 357 356 358 0 3 2 5 7 9 6 13 9 9 3 357 360 3 4 357 358 41 49 64 85 104 113 114 127